This is the latest recevied weather packets stored in our database for station/object W4MSI. If no packets are shown the sender has not sent any weather packets the latest 10 day(s).
| Time | Temp. | Humidity | Pressure | Rain* | Wind** | Luminosity | Snow |
|---|---|---|---|---|---|---|---|
| 1777859895 | 16.11° C | 47% | 1013.4 hPa | 0 mm | - | 0 W/m² | - |
| 1777859591 | 16.11° C | 48% | 1013 hPa | 0 mm | - | 0 W/m² | - |
| 1777859288 | 16.11° C | 48% | 1013.5 hPa | 0 mm | - | 0 W/m² | - |
| 1777858983 | 16.11° C | 48% | 1013.6 hPa | 0 mm | - | 0 W/m² | - |
| 1777858681 | 15.56° C | 49% | 1013.6 hPa | 0 mm | - | 0 W/m² | - |
| 1777858379 | 16.11° C | 49% | 1013.8 hPa | 0 mm | - | 0 W/m² | - |
| 1777858075 | 16.11° C | 49% | 1013.7 hPa | 0 mm | - | 0 W/m² | - |
| 1777857774 | 16.11° C | 49% | 1013.7 hPa | 0 mm | - | 0 W/m² | - |
| 1777857470 | 16.11° C | 48% | 1013.8 hPa | 0 mm | - | 0 W/m² | - |
| 1777857167 | 16.11° C | 48% | 1013.9 hPa | 0 mm | - | 0 W/m² | - |
| 1777856863 | 16.11° C | 48% | 1014.1 hPa | 0 mm | - | 0 W/m² | - |
| 1777856558 | 16.11° C | 48% | 1014.1 hPa | 0 mm | - | 0 W/m² | - |
| 1777856255 | 16.67° C | 48% | 1014 hPa | 0 mm | - | 0 W/m² | - |
| 1777855953 | 16.67° C | 47% | 1014 hPa | 0 mm | - | 1 W/m² | - |
| 1777855650 | 16.67° C | 47% | 1013.9 hPa | 0 mm | - | 1 W/m² | - |
| 1777855347 | 16.67° C | 47% | 1014 hPa | 0 mm | - | 3 W/m² | - |
| 1777855043 | 16.67° C | 47% | 1014 hPa | 0 mm | - | 5 W/m² | - |
| 1777854741 | 17.22° C | 46% | 1013.9 hPa | 0 mm | - | 8 W/m² | - |
| 1777854437 | 17.22° C | 46% | 1013.7 hPa | 0 mm | - | 10 W/m² | - |
| 1777854134 | 17.22° C | 46% | 1013.5 hPa | 0 mm | - | 14 W/m² | - |
| 1777853832 | 17.22° C | 45% | 1013.8 hPa | 0 mm | - | 18 W/m² | - |
| 1777853529 | 17.78° C | 45% | 1013.8 hPa | 0 mm | - | 21 W/m² | - |
| 1777853225 | 17.78° C | 44% | 1013.8 hPa | 0 mm | - | 25 W/m² | - |
| 1777852922 | 17.78° C | 43% | 1013.9 hPa | 0 mm | - | 30 W/m² | - |
| 1777852621 | 17.78° C | 43% | 1013.9 hPa | 0 mm | - | 32 W/m² | - |
* Rain latest hour (hover to see other rain measurements)
** Current wind speed in m/s (hover to see current wind gust speed)